This demonstration page uses our WeatherBlox Daily Observations layout. Learn more.

Left ArrowRight Arrow

Hourly Observations for April 17, 2021

Temp ( °F °C ) Dew Point ( °F °C ) Humidity (%) Winds ( mph kmh ) Pressure ( in mb ) Visibility ( mi km ) Precip ( " mm )
12:53 am 00:53 Clear 57 13.9 46 7.8 67 67 Calm 29.85 1011 10 16 0.00 0.00
1:53 am 01:53 Cloudy with Light Rain 57 13.9 45 7.2 64 64 SSW 3 6 29.85 1011 10 16 0.00 0.00
2:53 am 02:53 Cloudy 55 12.8 47 8.3 74 74 Calm 29.84 1010 10 16 0.00 0.00
3:53 am 03:53 Cloudy 55 12.8 47 8.3 74 74 SW 3 6 29.84 1010 10 16 0.00 0.00
4:53 am 04:53 Mostly Cloudy 55 12.8 46 7.8 72 72 Calm 29.83 1010 10 16 0.00 0.00
5:53 am 05:53 Cloudy 54 12.2 47 8.3 77 77 Calm 29.83 1010 10 16 0.00 0.00
6:53 am 06:53 Clear 53 11.7 49 9.4 86 86 Calm 29.82 1010 10 16 0.00 0.00
7:53 am 07:53 Mostly Cloudy 54 12.2 49 9.4 83 83 Calm 29.86 1011 10 16 0.00 0.00
8:53 am 08:53 Sunny 56 13.3 49 9.4 77 77 Calm 29.87 1011 10 16 0.00 0.00
9:53 am 09:53 Cloudy 60 15.6 46 7.8 60 60 Calm 29.89 1012 10 16 0.00 0.00
10:53 am 10:53 Cloudy 62 16.7 37 2.8 40 40 Calm 29.88 1012 10 16 0.00 0.00
11:53 am 11:53 Cloudy 65 18.3 36 2.2 34 34 Calm 29.88 1012 10 16 0.00 0.00
12:53 pm 12:53 Cloudy 65 18.3 35 1.7 33 33 Calm 29.87 1011 10 16 0.00 0.00
1:53 pm 13:53 Cloudy 67 19.4 39 3.9 36 36 Calm 29.85 1011 10 16 0.00 0.00
2:53 pm 14:53 Cloudy 68 20 38 3.3 33 33 NNW 6 9 29.83 1010 10 16 0.00 0.00
3:53 pm 15:53 Mostly Cloudy 69 20.6 39 3.9 33 33 Calm 29.81 1010 10 16 0.00 0.00
4:53 pm 16:53 Mostly Cloudy 69 20.6 41 5 36 36 W 7 11 29.80 1009 10 16 0.00 0.00
5:53 pm 17:53 Partly Cloudy 71 21.7 42 5.6 35 35 VRB 5 7 29.81 1010 10 16 0.00 0.00
6:53 pm 18:53 Mostly Cloudy 71 21.7 43 6.1 36 36 WNW 8 13 29.82 1010 10 16 0.00 0.00
7:53 pm 19:53 Sunny 67 19.4 44 6.7 44 44 NW 6 9 29.82 1010 10 16 0.00 0.00
8:53 pm 20:53 Mostly Clear 64 17.8 44 6.7 48 48 NW 5 7 29.84 1011 10 16 0.00 0.00
9:53 pm 21:53 Clear 61 16.1 43 6.1 52 52 NNW 5 7 29.85 1011 10 16 0.00 0.00
10:53 pm 22:53 Clear 61 16.1 43 6.1 52 52 NW 8 13 29.86 1011 10 16 0.00 0.00
11:53 pm 23:53 Clear 60 15.6 42 5.6 52 52 NNW 7 11 29.88 1012 10 16 0.00 0.00

Powered by AerisWeather